AAUSAT-II

Last updated on Thu Nov 21 2024 00:03:39 GMT+0000 (Coordinated Universal Time)

1 32788U 08021F 24325.19776661 .00058740 00000+0 18060-2 0 9998 2 32788 97.6051 307.4985 0005549 42.9829 317.1846 15.33462747902082
UTC large
Height (km)
Speed (km/s)
/
Latitude / Longitude
Inclination (degrees)
Orbital Period (minutes)
Azimuth
Elevation
Range (km)
Doppler Factor

Next 0 passes for location: London (51.5072 / 0.1276)

Sorry there are no passes over London.